Regional Weather Roundup
Issued by NWS

Home | Current Version | Previous Version | Graphics & Text | Print | Product List | Glossary On
Versions: 1 2 3 4 5 6 7 8 9 10 11 12 13 14 15 16 17 18 19 20 21 22 23 24 25 26 27 28 29 30 31 32 33 34 35 36 37 38 39 40 41 42 43 44 45 46 47 48 49 50
000
ASUS43 KMPX 240901
RWRMN
WEATHER ROUNDUP FOR MINNESOTA
NATIONAL WEATHER SERVICE TWIN CITIES/CHANHASSEN MN
300 AM CST FRI NOV 24 2017


NOTE: "FAIR" INDICATES FEW OR NO CLOUDS BELOW 12,000 FEET WITH NO
SIGNIFICANT WEATHER AND/OR OBSTRUCTIONS TO VISIBILITY. N/A MEANS
CURRENT SKY AND/OR WEATHER CONDITIONS ARE NOT AVAILABLE.

MNZ060>063-068>070-241000-
   Twin Cities Metro

CITY           SKY/WX    TMP DP  RH WIND       PRES   REMARKS
TWIN CITIES    PTCLDY    48  37  65 SW7       29.48F
ST PAUL        PTCLDY    39  34  82 SE7       29.50F
CRYSTAL        PTCLDY    45  33  63 S8        29.46F
BLAINE         CLEAR     48  36  61 S12       29.46F
LAKEVILLE      CLEAR     46  37  71 SW5       29.49F
EDEN PRAIRIE   PTCLDY    45  35  68 SW12      29.48F
SOUTH ST PAUL  CLEAR     44  34  67 SE5       29.49F
LAKE ELMO      FAIR      43  36  75 S10       29.50F
$$
MNZ001>005-007-008-013>017-022>024-027-028-241000-
   Northwest Minnesota

CITY           SKY/WX    TMP DP  RH WIND       PRES   REMARKS
BEMIDJI        CLEAR     41  35  79 SW5       29.28F
HALLOCK        PTCLDY    36  34  93 S5        29.23R
ROSEAU         PTCLDY    45  37  76 SW10      29.21R
WARROAD        MOCLDY    45  37  76 SW10      29.19F
CROOKSTON      CLOUDY    39  36  87 S10       29.28S
FOSSTON        PTCLDY    39  36  87 S7        29.29S
DETROIT LAKES  CLOUDY    45  37  76 SW6       29.33F
MOORHEAD       PTCLDY    37  32  81 CALM      29.32S
PARK RAPIDS    CLEAR     37  34  89 SW6       29.32F
MAHNOMEN       FAIR      39  35  84 S9        29.30F
$$
MNZ006-009>011-018-025>026-241000-
   North Central Minnesota

CITY           SKY/WX    TMP DP  RH WIND       PRES   REMARKS
BAUDETTE       CLOUDY    45  36  70 SW8       29.18S
FLAG ISLAND    CLOUDY    43  36  75 W9        29.15R
INTL FALLS     CLOUDY    42  33  70 SW8       29.19F
WASKISH        MOCLDY    43  37  81 SW6       29.24F
BIG FORK       CLEAR     39  34  81 S6        29.27S
LONGVILLE      PTCLDY    41  36  81 SW3       29.32S
GRAND RAPIDS   PTCLDY    42  34  73 S7        29.33F
CRANE LAKE     PTCLDY    39  34  81 S7        29.25S
ORR            CLEAR     37  30  75 S7        29.23F
COOK           CLOUDY    41  34  75 SW9       29.26F
WALKER         FAIR      42  35  76 SW8       29.30F
$$
MNZ012-019>021-037-241000-
   Northeast Minnesota

CITY           SKY/WX    TMP DP  RH WIND       PRES   REMARKS
DULUTH         CLOUDY    39  32  76 SW16      29.35F
ELY            CLOUDY    37  30  75 SW8       29.26F
HIBBING        CLOUDY    36  31  82 CALM      29.31F
EVELETH        CLOUDY    35  29  78 SW6       29.32F WCI  30
DULUTH HARBOR  CLOUDY    41  34  75 SW7       29.37F
TWO HARBORS    CLOUDY    39  32  75 SW7       29.33F
SILVER BAY     CLOUDY    34  28  80 CALM      29.32F
GRAND MARAIS     N/A     37  31  78 W5        29.32F
G MARAIS ARPRT CLOUDY    32  25  74 S8        29.28F WCI  25
$$
MNZ029>031-032-039>041-046>048-054>057-064-241000-
   West Central Minnesota

CITY           SKY/WX    TMP DP  RH WIND       PRES   REMARKS
FERGUS FALLS   CLEAR     37  34  87 S9        29.37F
WHEATON        CLEAR     48  36  61 SW8       29.38F
MORRIS         CLEAR     43  36  75 S7        29.38F
ALEXANDRIA     CLEAR     44  37  76 SW10      29.40F
ELBOW LAKE     FAIR      38  35  90 S10       29.38S
WADENA         CLEAR     46  37  71 SW8       29.34F
GLENWOOD       CLEAR     39  36  87 SW12      29.41F
APPLETON       CLEAR     50  37  62 SW10      29.40F
BENSON         CLEAR     39  34  81 S5        29.42F
ORTONVILLE     CLEAR     46  37  71 CALM      29.40S
MADISON        CLEAR     54  39  58 SW14      29.41F
WILLMAR        FAIR      39  36  87 CALM      29.44F
$$
MNZ033>034-036-042>043-049>051-058-059-241000-
   Central Minnesota

CITY           SKY/WX    TMP DP  RH WIND       PRES   REMARKS
ST CLOUD       CLEAR     39  35  86 S5        29.42F
SAUK CENTRE    FAIR      42  36  79 SW9       29.40F
PAYNESVILLE    CLEAR     44  38  79 S5        29.43F
AITKIN         PTCLDY    39  34  81 S5        29.34F
PINE RIVER     CLOUDY    28  27  93 SE6       29.37F WCI  22
BRAINERD       CLOUDY    41  34  76 SW12      29.36F
STAPLES        CLEAR     43  36  75 S7        29.35F
LONG PRAIRIE   FAIR      36  32  87 S6        29.40F
LITTLE FALLS   CLEAR     39  30  70 S5        29.40F
LITCHFIELD     CLEAR     43  37  81 S3        29.44F
BUFFALO        CLEAR     41  33  73 S5        29.47F
MAPLE LAKE     CLEAR     42  36  78 S6        29.46F
HUTCHINSON     PTCLDY    38  34  87 CALM      29.47F
$$
MNZ037-044-045-052-053-241000-
   East Central Minnesota

CITY           SKY/WX    TMP DP  RH WIND       PRES   REMARKS
PRINCETON      CLEAR     45  36  70 S9        29.43F
MORA           CLEAR     36  32  87 S5        29.44F
CAMBRIDGE      CLEAR     46  34  61 S10       29.43F
RUSH CITY      CLEAR     41  33  72 S9        29.43F
MOOSE LAKE     CLOUDY    36  32  87 SW7       29.37F
HINCKLEY       FAIR      37  32  81 S5        29.41F
CLOQUET        PTCLDY    39  30  70 SW14G23   29.36F
MCGREGOR       PTCLDY    41  34  75 S8        29.36F
$$
MNZ071>073-080-081-089-090-097-098-241000-
   Southwest Minnesota

CITY           SKY/WX    TMP DP  RH WIND       PRES   REMARKS
MONTEVIDEO     CLEAR     46  37  71 W7        29.42F
GRANITE FALLS  CLEAR     49  40  71 SW10      29.45F
CANBY          CLEAR     53  39  60 SW15G22   29.44F
MARSHALL       CLEAR     53  40  61 SW16      29.45F
REDWOOD FALLS  CLEAR     47  37  68 SW16      29.45F
OLIVIA         CLEAR     41  34  75 SW9       29.44F
PIPESTONE      CLEAR     43  37  81 CALM      29.49F
WINDOM         CLEAR     46  30  53 S9        29.51F
WORTHINGTON    CLEAR     49  39  68 SW16      29.51F
JACKSON        CLEAR     46  37  71 S10       29.53F
SLAYTON        CLEAR     45  38  76 SW15      29.51F
$$
MNZ065>067-074>077-082>085-091>093-241000-
   South Central Minnesota

CITY           SKY/WX    TMP DP  RH WIND       PRES   REMARKS
MANKATO        CLEAR     43  35  73 S9        29.51F
NEW ULM        CLEAR     43  36  75 CALM      29.47F
ST JAMES       CLEAR     46  37  71 S10       29.51F
FAIRMONT       CLEAR     43  37  79 S14       29.53F
GLENCOE        CLEAR     42  36  79 S6        29.46F
FARIBAULT      CLEAR     46  37  71 S6        29.53F
OWATONNA       CLEAR     46  37  71 S15       29.54F
WASECA         CLEAR     43  34  70 S13       29.55F
ALBERT LEA     CLEAR     50  36  57 S12G18    29.56F
$$
MNZ078>079-086>088-094>096-241000-
   Southeast Minnesota

CITY           SKY/WX    TMP DP  RH WIND       PRES   REMARKS
ROCHESTER      CLEAR     43  35  73 S21       29.56F
RED WING       CLEAR     46  32  57 SW3       29.52F
STANTON        CLEAR     46  36  69 S7        29.50F
DODGE CENTER   PTCLDY    43  34  70 S18G25    29.55F
WINONA         CLEAR     48  34  57 CALM      29.59F
PRESTON        CLEAR     44  33  65 SW16      29.60S
$$
ABBREVIATIONS USED IN REMARKS
   TC - TEMPERATURES IN CELSIUS
  WCI - WIND CHILL INDEX
   HX - HEAT INDEX
  VSB - VISIBILITY
$$




USA.gov is the U.S. government's official web portal to all federal, state and local government web resources and services.